[[{"header":{"parameterUnit":"m.s-1","parameterCategory":1,"la1":30.2991,"la2":30.254,"lo1":-89.0895,"lo2":-89.0444,"dy":0.0017,"dx":0.0017,"nx":28,"ny":28,"refTime":"2023-10-17T09:00:00:Z","depth":0,"parameterNumber":2,"parameterNumberName":"U-component_of_WINDS"},"data":[0,0,0,0,0,0,0,0,0,0,0,0,0,0,0,0,0,0,0,0,0,0,0,0,0,0,0,0,0,0,0,0,0,0,0,0,0,0,0,0,0,0,0,0,0,0,0,0,0,0,0,0,0,0,0,0,0,0,0.9085,0.9084,0,0.9028,0.9027,0.9027,0.8991,0.8991,0.8991,0.8991,0.893,0.8929,0.8927,0,0,0,0,0,0,0,0,0,0,0,0,0,0.9161,0.9159,0.9085,0.9084,0.9084,0.9028,0.9027,0.9026,0.8991,0.8991,0.8991,0.8991,0.8931,0.8929,0.8927,0,0,0,0,0,0,0,0,0,0,0,0,0,0.9118,0.9159,0.9085,0.906,0.9057,0.9028,0.9027,0.9026,0.8991,0.8991,0.8991,0.8991,0.8931,0.8929,0.8927,0.8919,0,0,0.892,0.8919,0,0,0,0,0,0,0,0,0.912,0.9115,0.9064,0.9061,0.9058,0.9017,0.9032,0.899,0.8992,0.9016,0.8991,0.8991,0.8959,0.8954,0.8944,0.8916,0.8913,0.892,0.8919,0.8918,0.8917,0,0,0,0,0,0,0,0.9123,0.9118,0.9062,0.9063,0.906,0.905,0.9043,0.9024,0.899,0.9014,0.9011,0.9005,0.8957,0.8946,0.8943,0.8912,0.892,0.8918,0.8917,0.8916,0.8872,0.8872,0,0,0,0,0,0,0.9131,0.912,0.9064,0.9061,0.9089,0.9049,0.9042,0.903,0.899,0.8983,0.9005,0.9004,0.895,0.8945,0.894,0.8927,0.8918,0.8916,0.8915,0.8872,0.8872,0.8872,0,0,0,0,0,0,0.9133,0.9126,0.9066,0.909,0.9081,0.9048,0.9035,0.9029,0.9018,0.8983,0.8977,0.9001,0.895,0.8943,0.8924,0.8924,0.8915,0.8913,0.8872,0.8872,0.8872,0.89,0,0,0,0,0,0,0.9135,0.9127,0.9125,0.909,0.908,0.9052,0.9035,0.9028,0.9015,0.9012,0.8977,0.8971,0.8949,0.8928,0.8922,0.8921,0.8911,0.8872,0.8872,0.8872,0.8899,0.8902,0.8904,0,0,0,0,0,0.9138,0.9135,0.9125,0.9118,0.9077,0.9052,0.9047,0.9022,0.9015,0.9012,0.8989,0.8972,0.8925,0.8926,0.8919,0.8918,0.8872,0.8872,0.8872,0.8898,0.8901,0.8903,0,0,0,0,0,0,0.917,0.913,0.9118,0.9104,0.9082,0.9047,0.9042,0.9026,0.9005,0.9003,0.8973,0.8965,0.8948,0.8931,0.8933,0.8907,0.8896,0.8895,0.8919,0.8921,0.8923,0.8927,0.8909,0,0,0,0,0,0.9175,0.916,0.9125,0.9116,0.9106,0.9076,0.9064,0.9047,0.9023,0.9013,0.8989,0.8965,0.8945,0.8932,0.8911,0.8897,0.8888,0.8892,0.8894,0.8896,0.8895,0.8885,0.8886,0.8873,0.8873,0.8873,0,0,0.9186,0.9162,0.9155,0.9122,0.9103,0.9086,0.9068,0.9052,0.9039,0.901,0.899,0.8972,0.8943,0.8926,0.8917,0.8911,0.8897,0.8897,0.8898,0.8896,0.8885,0.8886,0.8887,0.8874,0.8874,0.8874,0,0,0.9198,0.9179,0.9168,0.9149,0.9121,0.9101,0.9098,0.9065,0.9051,0.9031,0.9009,0.8992,0.8958,0.8938,0.8924,0.8926,0.891,0.892,0.8931,0.8921,0.8922,0.8922,0.8922,0.8922,0.892,0.892,0.892,0,0.9215,0.919,0.9165,0.9149,0.9135,0.9109,0.9097,0.9079,0.9045,0.9035,0.9029,0.8985,0.8964,0.894,0.8941,0.893,0.8925,0.8924,0.8924,0.8924,0.8924,0.8923,0.8924,0.8921,0.8921,0.8921,0.8921,0,0.9212,0.9195,0.919,0.9158,0.9142,0.9129,0.91,0.9088,0.9072,0.9052,0.903,0.9004,0.8977,0.897,0.8954,0.8944,0.8941,0.893,0.8919,0.8927,0.8926,0.8926,0.8923,0.8923,0.8922,0.8922,0,0,0.9242,0.9195,0.9194,0.9178,0.9144,0.913,0.9115,0.9089,0.9078,0.9055,0.904,0.9011,0.9,0.8984,0.8965,0.8956,0.8958,0.8946,0.8945,0.8948,0.8943,0.8951,0.8952,0.8947,0.8947,0.8947,0.8945,0,0.9247,0.9219,0.9195,0.9176,0.9159,0.9133,0.9119,0.9096,0.9077,0.9059,0.9037,0.9016,0.9004,0.8994,0.8984,0.896,0.8956,0.896,0.8932,0.8931,0.8939,0.8951,0.896,0.896,0.8945,0.8945,0.8945,0,0.925,0.9228,0.9207,0.9173,0.9165,0.9154,0.9127,0.9111,0.9083,0.907,0.9051,0.9031,0.9012,0.9003,0.8976,0.8979,0.8965,0.8952,0.8951,0.8947,0.8938,0.8946,0.8959,0.8959,0.8944,0.8944,0.8944,0,0.9272,0.9238,0.922,0.9208,0.9169,0.9161,0.9144,0.9116,0.9102,0.9078,0.9068,0.9042,0.9028,0.9008,0.8981,0.8978,0.8956,0.8945,0.8943,0.8943,0.8939,0.894,0.8949,0.8932,0.8932,0.8932,0.8932,0,0.928,0.9268,0.923,0.9219,0.9204,0.9176,0.9161,0.9142,0.9117,0.9101,0.9077,0.9062,0.9028,0.9009,0.8988,0.8967,0.8961,0.8949,0.8943,0.895,0.8952,0.8941,0.894,0.8932,0.8932,0.8932,0.8932,0,0.9302,0.9277,0.9255,0.922,0.9211,0.9201,0.917,0.9157,0.9137,0.9116,0.911,0.9077,0.9053,0.9024,0.8991,0.8976,0.8957,0.8949,0.8967,0.8963,0.8962,0.8962,0.8964,0.8963,0.8948,0.8948,0.8948,0,0.9309,0.9299,0.9262,0.925,0.9234,0.9215,0.9199,0.9171,0.9156,0.9123,0.9115,0.9089,0.9067,0.9029,0.9001,0.8975,0.8966,0.8968,0.8961,0.8969,0.8964,0.8965,0.8963,0.897,0.897,0.897,0.8971,0,0.9322,0.931,0.9289,0.9264,0.9247,0.9226,0.9203,0.9195,0.9161,0.9145,0.9121,0.9104,0.9069,0.9043,0.9013,0.8994,0.8976,0.8973,0.8971,0.8978,0.8988,0.8981,0.8971,0.8973,0.8973,0.8972,0.8972,0.8972,0.9335,0.9325,0.9297,0.9275,0.9255,0.9235,0.9221,0.9198,0.9178,0.9148,0.9132,0.9107,0.9079,0.9037,0.9018,0.8998,0.8992,0.8989,0.8988,0.8987,0.8989,0.8992,0.8992,0.8992,0.8992,0.8992,0.8992,0,0.9347,0.9328,0.9308,0.9277,0.9259,0.9245,0.9219,0.9205,0.9183,0.9159,0.9137,0.9108,0.9082,0.9052,0.9025,0.9014,0.9005,0.9007,0.9007,0.9003,0.8997,0.9001,0.9015,0.9015,0.9015,0.9015,0.9015,0.9015,0.935,0.9331,0.9315,0.9285,0.9266,0.9242,0.9228,0.9209,0.9189,0.9157,0.9136,0.9117,0.909,0.906,0.9035,0.9027,0.9017,0.9022,0.9011,0.9005,0.9003,0.9002,0.9005,0.902,0.902,0.9019,0.9019,0.9019]},{"header":{"parameterUnit":"m.s-1","parameterCategory":1,"la1":30.2991,"la2":30.254,"lo1":-89.0895,"lo2":-89.0444,"dy":0.0017,"dx":0.0017,"nx":28,"ny":28,"refTime":"2023-10-17T09:00:00:Z","depth":0,"parameterNumber":3,"parameterNumberName":"V-component_of_WINDS"},"data":[0,0,0,0,0,0,0,0,0,0,0,0,0,0,0,0,0,0,0,0,0,0,0,0,0,0,0,0,0,0,0,0,0,0,0,0,0,0,0,0,0,0,0,0,0,0,0,0,0,0,0,0,0,0,0,0,0,0,2.5224,2.5224,0,2.5225,2.5225,2.5225,2.5174,2.5173,2.5172,2.517,2.5171,2.5172,2.5173,0,0,0,0,0,0,0,0,0,0,0,0,0,2.5178,2.5179,2.5224,2.5224,2.5224,2.5225,2.5225,2.5225,2.5175,2.5173,2.5171,2.517,2.517,2.5172,2.5173,0,0,0,0,0,0,0,0,0,0,0,0,0,2.519,2.5179,2.5224,2.5199,2.5197,2.5225,2.5225,2.5225,2.5175,2.5173,2.5171,2.5169,2.517,2.5172,2.5174,2.5225,0,0,2.5179,2.518,0,0,0,0,0,0,0,0,2.5189,2.5192,2.5202,2.5201,2.5198,2.5197,2.5209,2.5225,2.5175,2.5183,2.517,2.5168,2.5181,2.5182,2.5187,2.5225,2.5225,2.518,2.5181,2.5182,2.5182,0,0,0,0,0,0,0,2.5189,2.5191,2.5224,2.5203,2.52,2.5187,2.5187,2.5211,2.5193,2.5182,2.5179,2.5179,2.518,2.5185,2.5186,2.5225,2.518,2.5181,2.5182,2.5183,2.5306,2.5308,0,0,0,0,0,0,2.5191,2.5191,2.5224,2.5224,2.5189,2.519,2.5189,2.52,2.5193,2.519,2.5181,2.5177,2.5183,2.5184,2.5186,2.5245,2.5182,2.5183,2.5184,2.5304,2.5306,2.5309,0,0,0,0,0,0,2.519,2.5195,2.5224,2.5207,2.5209,2.5193,2.5205,2.5201,2.5206,2.5192,2.5189,2.519,2.5181,2.5183,2.5216,2.5245,2.5184,2.5186,2.5301,2.5305,2.5308,2.5365,0,0,0,0,0,0,2.5189,2.5195,2.5214,2.5207,2.5211,2.5254,2.5207,2.5202,2.5209,2.5204,2.5199,2.5197,2.518,2.5213,2.5218,2.5246,2.5187,2.5299,2.5303,2.5307,2.536,2.537,2.5378,0,0,0,0,0,2.5188,2.523,2.5216,2.522,2.5235,2.5256,2.5257,2.5237,2.5212,2.5231,2.5222,2.5197,2.5241,2.5217,2.5222,2.5251,2.5297,2.5302,2.5306,2.5356,2.5368,2.5377,0,0,0,0,0,0,2.5241,2.5229,2.5212,2.5254,2.5256,2.5247,2.5271,2.525,2.5259,2.5254,2.5229,2.5228,2.5264,2.5261,2.5234,2.53,2.5264,2.527,2.5301,2.5312,2.532,2.5319,2.5189,0,0,0,0,0,2.5258,2.5276,2.5265,2.5302,2.5304,2.5288,2.5296,2.5281,2.5282,2.5282,2.5276,2.5278,2.5292,2.5302,2.5314,2.536,2.5358,2.5383,2.5391,2.5398,2.5403,2.5426,2.5437,2.5325,2.5324,2.5324,0,0,2.5292,2.5288,2.5301,2.5313,2.5313,2.5332,2.5289,2.5311,2.5325,2.5286,2.5315,2.5311,2.5312,2.5351,2.5368,2.5349,2.5434,2.5405,2.541,2.5411,2.5432,2.5443,2.5453,2.5328,2.5327,2.5327,0,0,2.5364,2.5363,2.5394,2.5395,2.5395,2.5384,2.5391,2.5386,2.5381,2.5411,2.5382,2.5398,2.5423,2.5424,2.5428,2.5502,2.5478,2.5506,2.5551,2.5574,2.5583,2.559,2.5615,2.5624,2.5512,2.5512,2.5512,0,2.5406,2.5434,2.5412,2.5436,2.5442,2.5408,2.5439,2.5441,2.5445,2.545,2.543,2.546,2.5459,2.5497,2.5515,2.552,2.5527,2.5506,2.5583,2.5591,2.5597,2.5621,2.563,2.5515,2.5515,2.5514,2.5514,0,2.5485,2.5505,2.553,2.5535,2.5544,2.5571,2.5554,2.5565,2.5549,2.554,2.5571,2.5567,2.5578,2.5586,2.5571,2.5623,2.5611,2.5588,2.555,2.5612,2.5633,2.5642,2.552,2.5519,2.5518,2.5517,0,0,2.5589,2.5582,2.5592,2.5593,2.5592,2.5606,2.5632,2.5643,2.5653,2.5658,2.5678,2.5701,2.5678,2.5683,2.5668,2.5688,2.5745,2.5662,2.5661,2.5676,2.58,2.5817,2.5828,2.573,2.5731,2.5733,2.58,0,2.5658,2.5701,2.5683,2.5728,2.5745,2.5714,2.5736,2.5737,2.573,2.5743,2.5735,2.5751,2.5721,2.5723,2.5742,2.5734,2.5769,2.5729,2.5748,2.5748,2.5747,2.5839,2.5857,2.592,2.5808,2.581,2.5811,0,2.5743,2.5751,2.5798,2.5793,2.5799,2.582,2.5828,2.5842,2.5842,2.5835,2.5841,2.5821,2.5845,2.581,2.5843,2.5816,2.5823,2.582,2.5822,2.5822,2.5782,2.584,2.594,2.5949,2.5824,2.5823,2.5822,0,2.5813,2.5835,2.5866,2.5868,2.5864,2.5878,2.5877,2.5876,2.5883,2.5891,2.5895,2.5906,2.5911,2.5919,2.5902,2.5878,2.5938,2.5901,2.5932,2.5932,2.5944,2.5943,2.6045,2.5951,2.5951,2.5951,2.5951,0,2.589,2.592,2.5897,2.5916,2.5948,2.5927,2.5959,2.5954,2.5953,2.597,2.5944,2.5961,2.5938,2.5952,2.594,2.5968,2.5971,2.5966,2.5962,2.5967,2.5968,2.597,2.5965,2.5954,2.5953,2.5953,2.5952,0,2.5972,2.5959,2.599,2.5983,2.5981,2.6005,2.5999,2.6016,2.6007,2.6029,2.6033,2.6018,2.6034,2.6018,2.6033,2.6024,2.6062,2.6053,2.6062,2.6059,2.609,2.6087,2.6196,2.6209,2.6108,2.6109,2.611,0,2.6022,2.6044,2.6039,2.6049,2.6049,2.6065,2.6072,2.6053,2.6061,2.6064,2.6081,2.6094,2.6103,2.6129,2.612,2.6131,2.6121,2.6158,2.6122,2.6127,2.6119,2.6118,2.6119,2.6165,2.6166,2.6167,2.6168,0,2.6111,2.6103,2.6115,2.6125,2.6134,2.6141,2.6146,2.6155,2.6135,2.6146,2.6161,2.6169,2.6184,2.6197,2.6205,2.6203,2.6182,2.618,2.6187,2.6192,2.6196,2.6193,2.608,2.6177,2.6176,2.6175,2.6175,2.6174,2.6178,2.6195,2.6195,2.6209,2.621,2.6215,2.623,2.6223,2.6236,2.6246,2.6234,2.6253,2.6253,2.6262,2.6263,2.6277,2.6261,2.6272,2.6275,2.6277,2.6281,2.6195,2.6279,2.6278,2.6278,2.6278,2.6278,0,2.6264,2.6262,2.6276,2.6283,2.6294,2.6274,2.6278,2.6288,2.6305,2.6307,2.6317,2.6334,2.6347,2.6339,2.635,2.6363,2.6353,2.6366,2.6364,2.6364,2.6296,2.6287,2.6374,2.6374,2.6374,2.6374,2.6374,2.6374,2.631,2.6339,2.6331,2.636,2.6358,2.6376,2.638,2.6384,2.6386,2.6406,2.6417,2.6412,2.641,2.642,2.6431,2.6428,2.6433,2.6449,2.6443,2.6379,2.6369,2.636,2.6352,2.6451,2.6451,2.651,2.6511,2.6511]}]]